Location: Agendoh
(31.0664°N, 8.9343°W)
Time: 20:30:35
(UTC+00:00)

Lacrosse 5 - Pass Details

Date: 06 December 2021
Orbit: 714 x 724 km, 57.0° (Epoch: 28 August)

Event Time Altitude Azimuth Distance (km) Brightness Sun altitude
Rises 06:33:11 0° 198° (SSW) 3,108 5.2 -10.1°
Reaches altitude 10° 06:35:40 10° 191° (S) 2,193 4.5 -9.6°
Maximum altitude 06:40:23 41° 122° (ESE) 1,041 3.4 -8.7°
Drops below altitude 10° 06:45:08 10° 53° (NE) 2,209 4.8 -7.7°
Sets 06:47:38 0° 46° (NE) 3,134 5.5 -7.2°
